Champaign, IL

2:46 AM CDT on April 27, 2017 (GMT -0500)
Univ Of Illinois-Willard

Weather History for KCMI - March, 2014

Change the Weather History Date:

Sunday, March 23, 2014

  Actual Average Record
Temperature  
Mean Temperature 30 °F 43 °F  
Max Temperature 37 °F 54 °F 73 °F (2011)
Min Temperature 23 °F 33 °F 21 °F (2002)
Degree Days  
Heating Degree Days 35 22  
Month to date heating degree days 708 595  
Since 1 July heating degree days 5789 5097  
Cooling Degree Days 0 0  
Month to date cooling degree days 0 0  
Year to date cooling degree days 0 0  
Moisture  
Dew Point 16 °F    
Average Humidity 55    
Maximum Humidity 69    
Minimum Humidity 40    
Precipitation  
Precipitation 0.00 in 0.10 in 0.58 in (2005)
Month to date precipitation 1.00 1.89  
Year to date precipitation 3.75 5.96  
Sea Level Pressure  
Sea Level Pressure 30.38 in    
Wind  
Wind Speed 13 mph (NNW)    
Max Wind Speed 22 mph    
Max Gust Speed 27 mph    
Visibility 10 miles    
Events      
T = Trace of Precipitation, MM = Missing Value Source: NWS Daily Summary

Daily Weather History Graph

Daily Weather History Graph

Search for Another Location

Airport or City:

Trip Planner

Search our weather history database for the weather conditions in past years. The results will help you decide how hot, cold, wet, or windy it might be!

Date:

Astronomy

Mar. 23, 2014 Rise Set
Actual Time 6:51 AM CDT 7:08 PM CDT
Civil Twilight 6:24 AM CDT 7:35 PM CDT
Nautical Twilight 5:52 AM CDT 8:07 PM CDT
Astronomical Twilight 5:20 AM CDT 8:39 PM CDT
Moon 1:25 AM CDT (3/23) 11:32 AM CDT (3/23)
Length of Visible Light 13h 10m
Length of Day
12h 16m
Waning Gibbous, 54% of the Moon is Illuminated
Mar 23
Waning Gibbous
Mar 23
Last Quarter
Mar 30
New
Apr 7
First Quarter
Apr 15
Full

Hourly Weather History & Observations

Time (CDT) Temp. Windchill Dew Point Humidity Pressure Visibility Wind Dir Wind Speed Gust Speed Precip Events Conditions
12:53 AM 30.0 °F 19.5 °F 21.0 °F 69% 30.30 in 10.0 mi NNW 13.8 mph - N/A   Clear
1:53 AM 30.9 °F 19.1 °F 19.9 °F 64% 30.32 in 10.0 mi NNW 18.4 mph 24.2 mph N/A   Overcast
2:53 AM 30.0 °F 18.7 °F 19.0 °F 64% 30.32 in 10.0 mi NNW 16.1 mph - N/A   Overcast
3:53 AM 28.9 °F 17.3 °F 19.9 °F 69% 30.34 in 10.0 mi NNW 16.1 mph 23.0 mph N/A   Overcast
4:53 AM 28.0 °F 14.9 °F 18.0 °F 66% 30.35 in 10.0 mi North 19.6 mph - N/A   Mostly Cloudy
5:53 AM 27.0 °F 13.5 °F 17.1 °F 66% 30.36 in 10.0 mi North 19.6 mph - N/A   Scattered Clouds
6:53 AM 26.1 °F 15.0 °F 17.1 °F 69% 30.38 in 10.0 mi North 12.7 mph - N/A   Mostly Cloudy
7:44 AM 26.1 °F 12.0 °F 17.1 °F 69% 30.37 in 10.0 mi North 20.7 mph - N/A   Overcast
7:53 AM 26.1 °F 12.7 °F 16.0 °F 66% 30.40 in 10.0 mi North 18.4 mph - N/A   Overcast
8:53 AM 28.0 °F 15.7 °F 15.1 °F 58% 30.42 in 10.0 mi NNW 17.3 mph - N/A   Scattered Clouds
9:53 AM 30.0 °F 19.1 °F 15.1 °F 54% 30.43 in 10.0 mi North 15.0 mph - N/A   Scattered Clouds
10:53 AM 30.9 °F 20.2 °F 14.0 °F 50% 30.44 in 10.0 mi North 15.0 mph - N/A   Partly Cloudy
11:53 AM 32.0 °F 22.1 °F 12.0 °F 44% 30.43 in 10.0 mi NNW 13.8 mph - N/A   Partly Cloudy
12:53 PM 33.1 °F 24.4 °F 14.0 °F 46% 30.41 in 10.0 mi NW 11.5 mph 19.6 mph N/A   Partly Cloudy
1:53 PM 35.1 °F 26.9 °F 14.0 °F 42% 30.40 in 10.0 mi NNW 11.5 mph 21.9 mph N/A   Scattered Clouds
2:53 PM 35.1 °F 25.2 °F 14.0 °F 42% 30.39 in 10.0 mi NNW 16.1 mph 21.9 mph N/A   Scattered Clouds
3:53 PM 34.0 °F 25.0 °F 15.1 °F 46% 30.38 in 10.0 mi NNW 12.7 mph - N/A   Scattered Clouds
4:53 PM 35.1 °F 26.4 °F 14.0 °F 42% 30.38 in 10.0 mi NNW 12.7 mph - N/A   Scattered Clouds
5:53 PM 33.1 °F 25.5 °F 12.9 °F 43% 30.39 in 10.0 mi NW 9.2 mph - N/A   Scattered Clouds
6:53 PM 30.0 °F 21.1 °F 14.0 °F 51% 30.39 in 10.0 mi NNW 10.4 mph - N/A   Partly Cloudy
7:53 PM 27.0 °F 18.0 °F 15.1 °F 61% 30.38 in 10.0 mi North 9.2 mph - N/A   Clear
8:53 PM 25.0 °F 17.1 °F 16.0 °F 69% 30.39 in 10.0 mi North 6.9 mph - N/A   Clear
9:53 PM 24.1 °F 18.2 °F 15.1 °F 69% 30.40 in 10.0 mi North 4.6 mph - N/A   Clear
10:53 PM 23.0 °F 18.4 °F 14.0 °F 68% 30.40 in 10.0 mi NNE 3.5 mph - N/A   Clear
11:53 PM 24.1 °F 17.0 °F 14.0 °F 65% 30.39 in 10.0 mi NE 5.8 mph - N/A   Clear